Tracking 35274 objects as of 11-Sep-2026
HD Live streaming from Space Station
objects crossing your sky now

STARLINK-30300

Track STARLINK-30300 now!
10-day predictions
STARLINK-30300 is classified as:


NORAD ID: 57715
Int'l Code: 2023-129T
Launch date: August 27, 2023
Source: United States (US)
Launch site: AIR FORCE EASTERN TEST RANGE (AFETR)
Your satellite tracking list
Your tracking list is empty




NASA's NSSDC Master Catalog

Two Line Element Set (TLE):
1 57715U 23129T   26254.13592994  .00003113  00000-0  12253-3 0  9997
2 57715  43.0032 150.6447 0001040 274.7112  85.3621 15.27601346169045
Source of the keplerian elements: AFSPC